User: anonymous   Login
Location: Unspecified
(0.0000°N, 0.0000°E)
Time: 07:58:18
(UTC+00:00)
Language:

Tiangong 2 - Orbit

View from above orbital plane
View from above orbital plane
View from above satellite
View from above satellite

Ground track
Ground track

The orbit data is extracted from the following two-line orbital elements,

1 41765U 16057A   17021.80809291  .00009170  00000-0  96198-4 0  9994
2 41765  42.7844 149.4225 0008659 288.0643 201.9143 15.64562970 20085
Epoch (UTC): 21 January 2017 19:23:39
Eccentricity: 0.0008659
inclination: 42.7844°
perigee height: 368 km
apogee height: 380 km
right ascension of ascending node: 149.4225°
argument of perigee: 288.0643°
revolutions per day: 15.64562970
mean anomaly at epoch: 201.9143°
orbit number at epoch: 2008

The dashed part of the orbit path shows where the satellite is in the earth's shadow,  

DLR